Time,TemperatureF,DewpointF,PressureIn,WindDirection,WindDirectionDegrees,WindSpeedMPH,WindSpeedGustMPH,Humidity,HourlyPrecipIn,Conditions,Clouds,dailyrainin,SolarRadiationWatts/m^2,SoftwareType,DateUTC
2013-01-24 00:00:00,34.1,22.0,30.78,SSE,157,0.0,4.0,61,0.00,CLR,SKC,0.00,0.0,WeatherDisplay:10.37,2013-01-24 07:00:00,
2013-01-24 00:15:00,33.7,21.6,30.78,SE,139,3.0,5.0,61,0.00,CLR,SKC,0.00,0.0,WeatherDisplay:10.37,2013-01-24 07:15:00,
2013-01-24 00:30:00,36.5,21.8,30.77,SE,135,3.0,6.0,55,0.00,CLR,SKC,0.00,0.0,WeatherDisplay:10.37,2013-01-24 07:30:00,
2013-01-24 00:45:00,34.3,22.2,30.76,WNW,293,0.0,4.0,61,0.00,CLR,SKC,0.00,0.0,WeatherDisplay:10.37,2013-01-24 07:45:00,
2013-01-24 01:00:00,33.5,21.9,30.74,WNW,301,1.0,2.0,62,0.00,CLR,SKC,0.00,0.0,WeatherDisplay:10.37,2013-01-24 08:00:00,
2013-01-24 01:15:00,33.9,23.0,30.74,NNE,19,1.0,5.0,64,0.00,CLR,SKC,0.00,0.0,WeatherDisplay:10.37,2013-01-24 08:15:00,
2013-01-24 01:30:00,33.7,23.2,30.73,NNE,24,0.0,2.0,65,0.00,CLR,SKC,0.00,0.0,WeatherDisplay:10.37,2013-01-24 08:30:00,
2013-01-24 01:45:00,33.7,23.5,30.73,East,95,2.0,3.0,66,0.00,CLR,SKC,0.00,0.0,WeatherDisplay:10.37,2013-01-24 08:45:00,
2013-01-24 02:00:00,34.2,23.3,30.73,ESE,122,3.0,5.0,64,0.00,CLR,SKC,0.00,0.0,WeatherDisplay:10.37,2013-01-24 09:00:00,
2013-01-24 02:15:00,35.6,23.9,30.72,ESE,119,1.0,4.0,62,0.00,CLR,SKC,0.00,0.0,WeatherDisplay:10.37,2013-01-24 09:15:00,
2013-01-24 02:30:00,37.4,23.9,30.73,ESE,122,0.0,4.0,58,0.00,CLR,SKC,0.00,0.0,WeatherDisplay:10.37,2013-01-24 09:30:00,
2013-01-24 02:45:00,33.6,23.4,30.75,SW,219,2.0,7.0,66,0.00,CLR,SKC,0.00,0.0,WeatherDisplay:10.37,2013-01-24 09:45:00,
2013-01-24 03:00:00,33.0,22.5,30.74,SSE,161,2.0,3.0,65,0.00,CLR,SKC,0.00,0.0,WeatherDisplay:10.37,2013-01-24 10:00:00,
2013-01-24 03:15:00,36.0,22.6,30.74,ESE,118,1.0,5.0,58,0.00,CLR,SKC,0.00,0.0,WeatherDisplay:10.37,2013-01-24 10:15:00,
2013-01-24 03:30:00,35.9,22.5,30.74,SSE,150,1.0,3.0,58,0.00,CLR,SKC,0.00,0.0,WeatherDisplay:10.37,2013-01-24 10:30:00,
2013-01-24 03:45:00,31.8,22.1,30.73,NW,313,2.0,6.0,67,0.00,CLR,SKC,0.00,0.0,WeatherDisplay:10.37,2013-01-24 10:45:00,
2013-01-24 04:00:00,29.8,22.5,30.72,NE,47,1.0,3.0,74,0.00,CLR,SKC,0.00,0.0,WeatherDisplay:10.37,2013-01-24 11:00:00,
2013-01-24 04:15:00,30.8,23.2,30.72,NE,56,0.0,2.0,73,0.00,CLR,SKC,0.00,0.0,WeatherDisplay:10.37,2013-01-24 11:15:00,
2013-01-24 04:30:00,31.9,23.2,30.72,NE,56,0.0,0.0,70,0.00,CLR,SKC,0.00,0.0,WeatherDisplay:10.37,2013-01-24 11:30:00,
2013-01-24 04:45:00,34.2,23.7,30.70,ENE,76,2.0,5.0,65,0.00,CLR,SKC,0.00,0.0,WeatherDisplay:10.37,2013-01-24 11:45:00,
2013-01-24 05:00:00,35.4,24.1,30.70,East,91,0.0,2.0,63,0.00,CLR,SKC,0.00,0.0,WeatherDisplay:10.37,2013-01-24 12:00:00,
2013-01-24 05:15:00,35.1,23.0,30.70,East,92,0.0,3.0,61,0.00,CLR,SKC,0.00,0.0,WeatherDisplay:10.37,2013-01-24 12:15:00,
2013-01-24 05:30:00,36.2,24.8,30.70,East,92,0.0,2.0,63,0.00,CLR,SKC,0.00,0.0,WeatherDisplay:10.37,2013-01-24 12:30:00,
2013-01-24 05:45:00,37.0,24.4,30.69,East,92,5.0,6.0,60,0.00,CLR,SKC,0.00,0.0,WeatherDisplay:10.37,2013-01-24 12:45:00,
2013-01-24 06:00:00,35.4,24.8,30.70,WNW,283,0.0,6.0,65,0.00,CLR,SKC,0.00,0.0,WeatherDisplay:10.37,2013-01-24 13:00:00,
2013-01-24 06:15:00,35.0,24.8,30.70,WSW,241,2.0,4.0,66,0.00,CLR,SKC,0.00,0.0,WeatherDisplay:10.37,2013-01-24 13:15:00,
2013-01-24 06:30:00,34.3,24.8,30.70,WSW,254,1.0,4.0,68,0.00,CLR,SKC,0.00,0.0,WeatherDisplay:10.37,2013-01-24 13:30:00,
2013-01-24 06:45:00,33.5,25.1,30.70,SSW,212,0.0,3.0,71,0.00,CLR,SKC,0.00,0.0,WeatherDisplay:10.37,2013-01-24 13:45:00,
2013-01-24 07:00:00,35.9,25.6,30.69,East,101,0.0,3.0,66,0.00,CLR,SKC,0.00,0.0,WeatherDisplay:10.37,2013-01-24 14:00:00,
2013-01-24 07:15:00,36.7,25.3,30.69,East,82,0.0,2.0,63,0.00,OVC,SKC,0.00,0.0,WeatherDisplay:10.37,2013-01-24 14:15:00,
2013-01-24 07:30:00,37.9,25.6,30.69,WNW,293,1.0,7.0,61,0.00,OVC,SKC,0.00,0.0,WeatherDisplay:10.37,2013-01-24 14:30:00,
2013-01-24 07:45:00,34.8,25.7,30.68,South,176,1.0,4.0,69,0.00,OVC,SKC,0.00,0.0,WeatherDisplay:10.37,2013-01-24 14:45:00,
2013-01-24 08:00:00,35.0,25.5,30.68,SE,144,0.0,3.0,68,0.00,BKN,SKC,0.00,14.0,WeatherDisplay:10.37,2013-01-24 15:00:00,
2013-01-24 08:15:00,35.2,25.3,30.68,SE,144,2.0,4.0,67,0.00,SCT,SKC,0.00,42.0,WeatherDisplay:10.37,2013-01-24 15:15:00,
2013-01-24 08:30:00,37.1,26.4,30.68,SE,144,0.0,3.0,65,0.00,BKN,SKC,0.00,44.0,WeatherDisplay:10.37,2013-01-24 15:30:00,
2013-01-24 08:45:00,36.5,26.2,30.68,NNW,331,1.0,6.0,66,0.00,SCT,SKC,0.00,107.0,WeatherDisplay:10.37,2013-01-24 15:45:00,
2013-01-24 09:00:00,35.5,26.0,30.68,NNE,33,1.0,3.0,68,0.00,SCT,SKC,0.00,58.0,WeatherDisplay:10.37,2013-01-24 16:00:00,
2013-01-24 09:15:00,37.3,28.1,30.68,ESE,104,0.0,5.0,69,0.00,BKN,SKC,0.00,120.0,WeatherDisplay:10.37,2013-01-24 16:15:00,
2013-01-24 09:30:00,39.7,28.1,30.69,ESE,104,0.0,2.0,63,0.00,SCT,SKC,0.00,120.0,WeatherDisplay:10.37,2013-01-24 16:30:00,
2013-01-24 09:45:00,41.4,27.7,30.69,ESE,110,2.0,5.0,58,0.00,SCT,SKC,0.00,195.0,WeatherDisplay:10.37,2013-01-24 16:45:00,
2013-01-24 10:00:00,42.9,27.0,30.70,ESE,121,0.0,3.0,53,0.00,SCT,SKC,0.00,142.0,WeatherDisplay:10.37,2013-01-24 17:00:00,
2013-01-24 10:15:00,43.6,27.6,30.70,ESE,123,1.0,3.0,53,0.00,BKN,SKC,0.00,109.0,WeatherDisplay:10.37,2013-01-24 17:15:00,
2013-01-24 10:30:00,43.5,28.8,30.70,ESE,123,1.0,3.0,56,0.00,BKN,SKC,0.00,125.0,WeatherDisplay:10.37,2013-01-24 17:30:00,
2013-01-24 10:45:00,44.1,29.4,30.70,ESE,123,1.0,3.0,56,0.00,BKN,SKC,0.00,179.0,WeatherDisplay:10.37,2013-01-24 17:45:00,
2013-01-24 11:00:00,45.7,32.6,30.70,SSE,160,3.0,7.0,60,0.00,SCT,SKC,0.00,178.0,WeatherDisplay:10.37,2013-01-24 18:00:00,
2013-01-24 11:15:00,42.4,32.2,30.71,SW,232,0.0,7.0,67,0.00,BKN,SKC,0.00,186.0,WeatherDisplay:10.37,2013-01-24 18:15:00,
2013-01-24 11:30:00,36.2,29.1,30.72,West,269,0.0,9.0,75,0.00,BKN,SKC,0.00,186.0,WeatherDisplay:10.37,2013-01-24 18:30:00,
2013-01-24 11:45:00,37.7,29.8,30.72,SSE,165,2.0,4.0,73,0.00,BKN,SKC,0.00,234.0,WeatherDisplay:10.37,2013-01-24 18:45:00,
2013-01-24 12:00:00,39.8,31.9,30.71,SE,146,1.0,5.0,73,0.00,SCT,SKC,0.00,267.0,WeatherDisplay:10.37,2013-01-24 19:00:00,
2013-01-24 12:15:00,42.1,33.3,30.71,SSE,154,1.0,3.0,71,0.00,SCT,SKC,0.00,253.0,WeatherDisplay:10.37,2013-01-24 19:15:00,
2013-01-24 12:30:00,42.8,34.0,30.70,SSE,156,1.0,3.0,71,0.00,SCT,SKC,0.00,202.0,WeatherDisplay:10.37,2013-01-24 19:30:00,
2013-01-24 12:45:00,42.4,35.0,30.69,South,174,0.0,4.0,75,0.00,BKN,SKC,0.00,297.0,WeatherDisplay:10.37,2013-01-24 19:45:00,
2013-01-24 13:00:00,42.2,35.5,30.69,South,180,3.0,5.0,77,0.01,SCT,SKC,0.01,246.0,WeatherDisplay:10.37,2013-01-24 20:00:00,
2013-01-24 13:15:00,41.3,35.3,30.69,South,187,2.0,7.0,79,0.00,BKN,SKC,0.01,183.0,WeatherDisplay:10.37,2013-01-24 20:15:00,
2013-01-24 13:30:00,40.9,35.5,30.69,South,191,0.0,4.0,81,0.01,BKN,SKC,0.02,234.0,WeatherDisplay:10.37,2013-01-24 20:30:00,
2013-01-24 13:45:00,40.6,35.5,30.68,South,191,1.0,3.0,82,0.00,BKN,SKC,0.02,176.0,WeatherDisplay:10.37,2013-01-24 20:45:00,
2013-01-24 14:00:00,40.6,36.1,30.68,South,191,1.0,3.0,84,0.00,BKN,SKC,0.02,165.0,WeatherDisplay:10.37,2013-01-24 21:00:00,
2013-01-24 14:15:00,40.4,36.2,30.67,South,191,1.0,3.0,85,0.01,BKN,SKC,0.03,197.0,WeatherDisplay:10.37,2013-01-24 21:15:00,
2013-01-24 14:30:00,40.1,36.2,30.67,South,191,1.0,3.0,86,0.00,SCT,SKC,0.03,230.0,WeatherDisplay:10.37,2013-01-24 21:30:00,
2013-01-24 14:45:00,40.8,37.2,30.66,South,191,0.0,3.0,87,0.00,SCT,SKC,0.03,216.0,WeatherDisplay:10.37,2013-01-24 21:45:00,
2013-01-24 15:00:00,40.2,36.3,30.66,South,191,2.0,4.0,86,0.00,BKN,SKC,0.03,153.0,WeatherDisplay:10.37,2013-01-24 22:00:00,
2013-01-24 15:15:00,40.3,36.5,30.66,South,191,1.0,3.0,86,0.00,BKN,SKC,0.03,104.0,WeatherDisplay:10.37,2013-01-24 22:15:00,
2013-01-24 15:30:00,39.8,36.2,30.66,South,191,0.0,2.0,87,0.00,BKN,SKC,0.03,81.0,WeatherDisplay:10.37,2013-01-24 22:30:00,
2013-01-24 15:45:00,39.6,36.6,30.65,South,191,0.0,2.0,89,0.00,BKN,SKC,0.03,72.0,WeatherDisplay:10.37,2013-01-24 22:45:00,
2013-01-24 16:00:00,39.2,36.2,30.64,South,191,1.0,3.0,89,0.00,SCT,SKC,0.03,142.0,WeatherDisplay:10.37,2013-01-24 23:00:00,
2013-01-24 16:15:00,39.1,36.2,30.64,South,191,2.0,3.0,89,0.00,BKN,SKC,0.03,88.0,WeatherDisplay:10.37,2013-01-24 23:15:00,
2013-01-24 16:30:00,39.7,36.7,30.64,South,191,0.0,2.0,89,0.00,BKN,SKC,0.03,40.0,WeatherDisplay:10.37,2013-01-24 23:30:00,
2013-01-24 16:45:00,38.0,35.0,30.66,SSW,196,0.0,2.0,89,0.00,BKN,SKC,0.03,11.0,WeatherDisplay:10.37,2013-01-24 23:45:00,
2013-01-24 17:00:00,36.4,33.7,30.67,SW,220,0.0,3.0,90,0.00,BKN,SKC,0.03,5.0,WeatherDisplay:10.37,2013-01-25 00:00:00,
2013-01-24 17:15:00,36.6,34.5,30.67,SSE,166,1.0,2.0,92,0.00,BKN,SKC,0.03,5.0,WeatherDisplay:10.37,2013-01-25 00:15:00,
2013-01-24 17:30:00,36.9,35.1,30.67,ESE,122,1.0,4.0,93,0.00,OVC,SKC,0.03,0.0,WeatherDisplay:10.37,2013-01-25 00:30:00,
2013-01-24 17:45:00,37.4,35.3,30.67,SE,133,0.0,5.0,92,0.00,OVC,SKC,0.03,0.0,WeatherDisplay:10.37,2013-01-25 00:45:00,
2013-01-24 18:00:00,36.5,34.4,30.68,NE,42,2.0,3.0,92,0.00,CLR,SKC,0.03,0.0,WeatherDisplay:10.37,2013-01-25 01:00:00,
2013-01-24 18:15:00,36.7,34.6,30.68,NE,37,0.0,2.0,92,0.00,CLR,SKC,0.03,0.0,WeatherDisplay:10.37,2013-01-25 01:15:00,
2013-01-24 18:30:00,36.5,34.4,30.69,NE,36,0.0,2.0,92,0.00,CLR,SKC,0.03,0.0,WeatherDisplay:10.37,2013-01-25 01:30:00,
2013-01-24 18:45:00,36.4,34.6,30.67,NE,36,0.0,0.0,93,0.00,CLR,SKC,0.03,0.0,WeatherDisplay:10.37,2013-01-25 01:45:00,
2013-01-24 19:00:00,36.4,34.5,30.68,NE,36,0.0,0.0,93,0.00,CLR,SKC,0.03,0.0,WeatherDisplay:10.37,2013-01-25 02:00:00,
2013-01-24 19:15:00,36.0,34.2,30.69,NE,36,0.0,0.0,93,0.00,CLR,SKC,0.03,0.0,WeatherDisplay:10.37,2013-01-25 02:15:00,
2013-01-24 19:30:00,35.9,34.1,30.69,NE,36,0.0,1.0,93,0.00,CLR,SKC,0.03,0.0,WeatherDisplay:10.37,2013-01-25 02:30:00,
2013-01-24 19:45:00,35.6,33.8,30.69,NE,36,0.0,2.0,93,0.00,CLR,SKC,0.03,0.0,WeatherDisplay:10.37,2013-01-25 02:45:00,
2013-01-24 20:00:00,35.9,34.3,30.68,NE,37,0.0,2.0,94,0.00,CLR,SKC,0.03,0.0,WeatherDisplay:10.37,2013-01-25 03:00:00,
2013-01-24 20:15:00,36.0,34.4,30.68,NE,36,0.0,2.0,94,0.00,CLR,SKC,0.03,0.0,WeatherDisplay:10.37,2013-01-25 03:15:00,
2013-01-24 20:30:00,36.0,34.4,30.68,NE,36,0.0,0.0,94,0.00,CLR,SKC,0.03,0.0,WeatherDisplay:10.37,2013-01-25 03:30:00,
2013-01-24 20:45:00,35.7,34.1,30.68,NE,36,0.0,0.0,94,0.00,CLR,SKC,0.03,0.0,WeatherDisplay:10.37,2013-01-25 03:45:00,
2013-01-24 21:00:00,35.6,34.0,30.69,NE,36,0.0,0.0,94,0.00,CLR,SKC,0.03,0.0,WeatherDisplay:10.37,2013-01-25 04:00:00,
2013-01-24 21:15:00,35.7,34.1,30.69,NE,36,0.0,1.0,94,0.00,CLR,SKC,0.03,0.0,WeatherDisplay:10.37,2013-01-25 04:15:00,
2013-01-24 21:30:00,35.6,34.0,30.70,NE,36,0.0,1.0,94,0.00,CLR,SKC,0.03,0.0,WeatherDisplay:10.37,2013-01-25 04:30:00,
2013-01-24 21:45:00,36.1,34.5,30.70,NE,36,0.0,1.0,94,0.00,CLR,SKC,0.03,0.0,WeatherDisplay:10.37,2013-01-25 04:45:00,
2013-01-24 22:00:00,35.9,34.3,30.70,NE,36,0.0,2.0,94,0.00,CLR,SKC,0.03,0.0,WeatherDisplay:10.37,2013-01-25 05:00:00,
2013-01-24 22:15:00,36.0,34.5,30.70,NE,36,0.0,1.0,94,0.00,CLR,SKC,0.03,0.0,WeatherDisplay:10.37,2013-01-25 05:15:00,
2013-01-24 22:30:00,36.0,34.5,30.69,NE,36,0.0,1.0,94,0.00,CLR,SKC,0.03,0.0,WeatherDisplay:10.37,2013-01-25 05:30:00,
2013-01-24 22:45:00,36.2,34.7,30.69,NE,36,0.0,0.0,94,0.00,CLR,SKC,0.03,0.0,WeatherDisplay:10.37,2013-01-25 05:45:00,
2013-01-24 23:00:00,36.0,34.4,30.70,NE,36,0.0,0.0,94,0.00,CLR,SKC,0.03,0.0,WeatherDisplay:10.37,2013-01-25 06:00:00,
2013-01-24 23:15:00,36.3,34.7,30.70,NE,36,0.0,0.0,94,0.00,CLR,SKC,0.03,0.0,WeatherDisplay:10.37,2013-01-25 06:15:00,
2013-01-24 23:30:00,36.5,36.5,30.69,NE,37,1.0,3.0,100,0.00,,SKC,0.03,0.0,WeatherDisplay:10.37,2013-01-25 06:30:00,
2013-01-24 23:45:00,36.5,35.5,30.68,NE,37,0.0,2.0,96,0.00,CLR,SKC,0.03,0.0,WeatherDisplay:10.37,2013-01-25 06:45:00,